• In Netherlands
  • List of Countries
  • For 7 days
  • Water Temperature
  • Satellite Maps
  • Weather Map
  • Weather Widgets
  • user-avatar
    Login

    Hourly Weather Sarafovo

    Today, 27 February, Monday

    Time Temperature Precipitation Wind Pressure Humidity
    00:00 +4°C° 0 mm 2 mps 763 mmHg 92%
    01:00 +5°C° 0 mm 1 mps 762 mmHg 92%
    02:00 +4°C° 0 mm 2 mps 762 mmHg 92%
    03:00 +4°C° 0 mm 2 mps 762 mmHg 92%
    04:00 +5°C° 0 mm 1 mps 762 mmHg 91%
    05:00 +5°C° 0 mm 1 mps 761 mmHg 91%
    06:00 +5°C° 0 mm 1 mps 761 mmHg 90%
    07:00 +6°C° 0 mm 1 mps 761 mmHg 89%
    08:00 +7°C° 0 mm 1 mps 761 mmHg 87%
    09:00 +9°C° 0 mm 1 mps 761 mmHg 80%
    10:00 +11°C° 0 mm 1 mps 761 mmHg 73%
    11:00 +13°C° 0 mm 1 mps 761 mmHg 65%
    12:00 +14°C° 0 mm 1 mps 761 mmHg 63%
    13:00 +15°C° 0 mm 1 mps 760 mmHg 60%
    14:00 +16°C° 0 mm 1 mps 760 mmHg 58%
    15:00 +15°C° 0 mm 1 mps 760 mmHg 63%
    16:00 +15°C° 0 mm 1 mps 760 mmHg 67%
    17:00 +14°C° 0 mm 2 mps 760 mmHg 72%
    18:00 +13°C° 0 mm 2 mps 760 mmHg 77%
    19:00 +10°C° 0 mm 2 mps 760 mmHg 81%
    20:00 +8°C° 0 mm 2 mps 760 mmHg 86%
    21:00 +8°C° 0 mm 2 mps 760 mmHg 87%
    22:00 +8°C° 0 mm 2 mps 760 mmHg 87%
    23:00 +7°C° 0 mm 2 mps 760 mmHg 88%

    Tomorrow, 28 February, Tuesday

    Time Temperature Precipitation Wind Pressure Humidity
    00:00 +7°C° 0 mm 2 mps 760 mmHg 88%
    01:00 +8°C° 0 mm 1 mps 760 mmHg 89%
    02:00 +7°C° 0 mm 1 mps 760 mmHg 89%
    03:00 +7°C° 0 mm 1 mps 760 mmHg 89%
    04:00 +7°C° 0 mm 1 mps 759 mmHg 89%
    05:00 +7°C° 0 mm 1 mps 759 mmHg 89%
    06:00 +7°C° 0 mm 1 mps 759 mmHg 88%
    07:00 +8°C° 0 mm 1 mps 759 mmHg 87%
    08:00 +9°C° 0 mm 1 mps 760 mmHg 85%
    09:00 +11°C° 0 mm 1 mps 760 mmHg 79%
    10:00 +12°C° 0 mm 2 mps 760 mmHg 73%
    11:00 +14°C° 0 mm 2 mps 760 mmHg 66%
    12:00 +15°C° 0 mm 2 mps 759 mmHg 65%
    13:00 +16°C° 0 mm 2 mps 759 mmHg 63%
    14:00 +17°C° 0 mm 2 mps 758 mmHg 61%
    15:00 +16°C° 0 mm 2 mps 758 mmHg 65%
    16:00 +14°C° 0 mm 3 mps 758 mmHg 70%
    17:00 +13°C° 0 mm 3 mps 757 mmHg 74%
    18:00 +13°C° 0 mm 2 mps 758 mmHg 78%
    19:00 +10°C° 0 mm 2 mps 758 mmHg 83%
    20:00 +9°C° 0 mm 2 mps 758 mmHg 87%
    21:00 +9°C° 0 mm 2 mps 758 mmHg 88%
    22:00 +8°C° 0 mm 2 mps 758 mmHg 89%
    23:00 +8°C° 0 mm 2 mps 758 mmHg 90%

    Day after tomorrow, 1 March, Wednesday

    Time Temperature Precipitation Wind Pressure Humidity
    00:00 +8°C° 0 mm 2 mps 757 mmHg 91%
    01:00 +8°C° 0 mm 2 mps 757 mmHg 91%
    02:00 +8°C° 0 mm 2 mps 757 mmHg 91%
    03:00 +8°C° 0 mm 2 mps 757 mmHg 92%
    04:00 +7°C° 0 mm 2 mps 756 mmHg 92%
    05:00 +7°C° 0 mm 2 mps 756 mmHg 92%
    06:00 +8°C° 0 mm 2 mps 756 mmHg 90%
    07:00 +8°C° 0 mm 2 mps 756 mmHg 89%
    08:00 +9°C° 0 mm 3 mps 756 mmHg 88%
    09:00 +11°C° 0 mm 3 mps 756 mmHg 81%
    10:00 +13°C° 0 mm 4 mps 755 mmHg 74%
    11:00 +15°C° 0 mm 5 mps 755 mmHg 67%
    12:00 +15°C° 0 mm 5 mps 754 mmHg 66%
    13:00 +16°C° 0 mm 5 mps 754 mmHg 64%
    14:00 +17°C° 0 mm 6 mps 753 mmHg 62%
    15:00 +17°C° 0 mm 5 mps 753 mmHg 66%
    16:00 +16°C° 0 mm 5 mps 753 mmHg 70%
    17:00 +15°C° 0 mm 5 mps 752 mmHg 73%
    18:00 +14°C° 0 mm 5 mps 752 mmHg 78%
    19:00 +13°C° 0 mm 5 mps 752 mmHg 82%
    20:00 +12°C° 0 mm 5 mps 752 mmHg 87%
    21:00 +10°C° 0 mm 5 mps 752 mmHg 88%
    22:00 +10°C° 0 mm 5 mps 752 mmHg 89%
    23:00 +10°C° 0 mm 5 mps 753 mmHg 90%

    2 March, Thursday

    Time Temperature Precipitation Wind Pressure Humidity
    00:00 +10°C° 0 mm 4 mps 753 mmHg 91%
    01:00 +10°C° 0 mm 4 mps 753 mmHg 91%
    02:00 +10°C° 0 mm 4 mps 753 mmHg 91%
    03:00 +8°C° 0 mm 4 mps 753 mmHg 88%
    04:00 +8°C° 0 mm 4 mps 754 mmHg 85%
    05:00 +8°C° 0 mm 5 mps 754 mmHg 82%
    06:00 +8°C° 0 mm 5 mps 754 mmHg 80%
    07:00 +8°C° 0 mm 5 mps 755 mmHg 77%
    08:00 +7°C° 0 mm 5 mps 756 mmHg 75%
    09:00 +8°C° 0 mm 5 mps 756 mmHg 73%
    10:00 +8°C° 0 mm 6 mps 757 mmHg 72%
    11:00 +9°C° 0 mm 7 mps 757 mmHg 70%
    12:00 +9°C° 0 mm 6 mps 758 mmHg 70%
    13:00 +9°C° 0 mm 6 mps 758 mmHg 70%
    14:00 +9°C° 0 mm 6 mps 758 mmHg 70%
    15:00 +9°C° 0 mm 5 mps 758 mmHg 71%
    16:00 +9°C° 0 mm 5 mps 758 mmHg 71%
    17:00 +10°C° 0 mm 4 mps 759 mmHg 71%
    18:00 +8°C° 0 mm 4 mps 759 mmHg 74%
    19:00 +9°C° 0 mm 3 mps 760 mmHg 77%
    20:00 +8°C° 0 mm 3 mps 760 mmHg 79%
    21:00 +7°C° 0 mm 3 mps 761 mmHg 79%
    22:00 +7°C° 0 mm 3 mps 761 mmHg 79%
    23:00 +6°C° 0 mm 2 mps 761 mmHg 79%

    3 March, Friday

    Time Temperature Precipitation Wind Pressure Humidity
    00:00 +5°C° 0 mm 3 mps 761 mmHg 79%
    01:00 +5°C° 0 mm 3 mps 762 mmHg 78%
    02:00 +4°C° 0 mm 3 mps 762 mmHg 78%
    03:00 +5°C° 0 mm 2 mps 762 mmHg 78%
    04:00 +5°C° 0 mm 2 mps 762 mmHg 78%
    05:00 +4°C° 0 mm 2 mps 762 mmHg 78%
    06:00 +5°C° 0 mm 2 mps 762 mmHg 75%
    07:00 +6°C° 0 mm 2 mps 763 mmHg 73%
    08:00 +6°C° 0 mm 2 mps 763 mmHg 70%
    09:00 +8°C° 0 mm 2 mps 763 mmHg 64%
    10:00 +11°C° 0 mm 1 mps 764 mmHg 57%
    11:00 +13°C° 0 mm 1 mps 764 mmHg 51%
    12:00 +13°C° 0 mm 1 mps 763 mmHg 49%
    13:00 +14°C° 0 mm 1 mps 763 mmHg 47%
    14:00 +15°C° 0 mm 1 mps 763 mmHg 45%
    15:00 +14°C° 0 mm 2 mps 763 mmHg 50%
    16:00 +13°C° 0 mm 2 mps 763 mmHg 55%
    17:00 +13°C° 0 mm 2 mps 763 mmHg 60%
    18:00 +10°C° 0 mm 2 mps 763 mmHg 65%
    19:00 +8°C° 0 mm 2 mps 764 mmHg 70%
    20:00 +7°C° 0 mm 2 mps 764 mmHg 75%
    21:00 +6°C° 0 mm 2 mps 764 mmHg 75%
    22:00 +6°C° 0 mm 2 mps 764 mmHg 75%
    23:00 +6°C° 0 mm 2 mps 765 mmHg 75%

    4 March, Saturday

    Time Temperature Precipitation Wind Pressure Humidity
    00:00 +5°C° 0 mm 2 mps 765 mmHg 76%
    01:00 +5°C° 0 mm 2 mps 765 mmHg 76%
    02:00 +6°C° 0 mm 1 mps 765 mmHg 77%
    03:00 +4°C° 0 mm 2 mps 764 mmHg 78%
    04:00 +4°C° 0 mm 2 mps 764 mmHg 80%
    05:00 +4°C° 0 mm 2 mps 764 mmHg 81%
    06:00 +5°C° 0 mm 2 mps 765 mmHg 79%
    07:00 +5°C° 0 mm 2 mps 765 mmHg 77%
    08:00 +6°C° 0 mm 2 mps 765 mmHg 74%
    09:00 +8°C° 0 mm 2 mps 765 mmHg 68%
    10:00 +10°C° 0 mm 3 mps 765 mmHg 61%
    11:00 +11°C° 0 mm 3 mps 765 mmHg 55%
    12:00 +12°C° 0 mm 3 mps 765 mmHg 54%
    13:00 +12°C° 0 mm 3 mps 765 mmHg 54%
    14:00 +13°C° 0 mm 4 mps 764 mmHg 53%
    15:00 +12°C° 0 mm 3 mps 764 mmHg 58%
    16:00 +11°C° 0 mm 3 mps 764 mmHg 62%
    17:00 +10°C° 0 mm 3 mps 764 mmHg 67%
    18:00 +9°C° 0 mm 3 mps 764 mmHg 73%
    19:00 +7°C° 0 mm 3 mps 764 mmHg 79%
    20:00 +6°C° 0 mm 2 mps 764 mmHg 85%
    21:00 +5°C° 0 mm 2 mps 764 mmHg 86%
    22:00 +5°C° 0 mm 2 mps 764 mmHg 87%
    23:00 +6°C° 0 mm 1 mps 764 mmHg 88%
    Show more